Location: Caoba
(9.7667°N, 67.4833°W)
Time: 03:04:00
(UTC+00:00)

Hubble Space Telescope - Visible Passes

Search period start: 19 January 2026 00:00
Search period end: 29 January 2026 00:00
Orbit: 479 x 481 km, 28.5° (Epoch: 18 January)

Date Brightness Start Highest point End Pass type
(mag) Time Alt. Az. Time Alt. Az. Time Alt. Az.
19 Jan 3.1 00:26:04 10° WNW 00:27:24 16° WNW 00:27:24 16° WNW visible
19 Jan 2.7 08:53:49 23° SE 08:53:49 23° SE 08:55:27 10° SE visible
19 Jan 2.4 23:56:21 10° WNW 23:59:16 21° NNW 23:59:30 21° NNW visible
20 Jan 2.4 23:26:37 10° WNW 23:29:31 21° NNW 23:31:34 14° NNE visible
21 Jan 2.5 22:56:53 10° WNW 22:59:45 20° NNW 23:02:38 10° NNE visible
